Observations
| Time | Sensor | AQI | SAQ | Temp °C | Hum % | Pres Pa | CO μg/m³ | H₂S μg/m³ | NO μg/m³ | NO₂ μg/m³ | O₃ μg/m³ | SO₂ μg/m³ | CO₂e PPM | VOC PPM | PM1 μg/m³ | PM2.5 μg/m³ | PM4 μg/m³ | PM10 μg/m³ | TPS µm |
|---|---|---|---|---|---|---|---|---|---|---|---|---|---|---|---|---|---|---|---|
| Tuesday 11 August 2026 | |||||||||||||||||||
| 12:47 | Trim Market St | 2 | 38.7 | 19 | 66,924 | 0 | 1.58 | 0.27 | 15.71 | 108.74 | 4.5 | 0 | 3.24 | 3.56 | |||||
| 12:47 | Trim Patrick St | 1 | 30.8 | 28 | 69,314 | 0 | 16.19 | 1.05 | 19.12 | 136.48 | 18.64 | 2 | 7.79 | 8.57 | |||||
| 12:46 | Trim Market St | 2 | 38.7 | 19 | 66,945 | 0 | 0.88 | 0.23 | 15.46 | 79.88 | 3.08 | 0.71 | 4.91 | 5.4 | |||||
| 12:45 | Trim Patrick St | 1 | 30.9 | 28 | 69,298 | 0 | 10.41 | 1.03 | 16.13 | 126.88 | 18.26 | 2.86 | 8.61 | 9.47 | |||||
| 12:44 | Trim Patrick St | 1 | 31 | 27 | 69,298 | 0 | 4.18 | 1.2 | 14.5 | 84.85 | 16.48 | 2 | 8.69 | 9.56 | |||||
| 12:43 | Trim Patrick St | 1 | 31.1 | 27 | 69,302 | 0 | 12.49 | 1.23 | 16.32 | 131.95 | 18.36 | 2.86 | 8.67 | 9.54 | |||||
| 12:42 | Trim Market St | 2 | 39.1 | 18 | 66,933 | 0 | 7.44 | 0.14 | 16.85 | 85.46 | 4.02 | 0 | 3.25 | 3.58 | |||||
| 12:42 | Trim Patrick St | 1 | 31.2 | 27 | 69,306 | 0 | 6.44 | 1.18 | 16.33 | 108.58 | 16.73 | 2.86 | 8.69 | 9.56 | |||||
| 12:41 | Trim Market St | 2 | 39.2 | 18 | 66,928 | 0 | 0 | 0.13 | 18.6 | 68.51 | 2.97 | 0 | 3.25 | 3.58 | |||||
| 12:41 | Trim Patrick St | 1 | 31.3 | 27 | 69,312 | 0 | 10.57 | 1.21 | 19.6 | 114.09 | 18.57 | 2 | 7.85 | 8.64 | |||||
| 12:40 | Trim Market St | 2 | 39.3 | 18 | 66,945 | 0 | 0 | 0.13 | 15.27 | 106.17 | 4.54 | 0 | 3.82 | 4.2 | |||||
| 12:40 | Trim Patrick St | 1 | 31.3 | 27 | 69,320 | 0 | 5.25 | 1.24 | 14.01 | 122.12 | 17.16 | 2 | 7.88 | 8.67 | |||||
| 12:39 | Trim Market St | 2 | 39.4 | 18 | 66,935 | 0 | 0 | 0.12 | 15.28 | 90.55 | 4.09 | 1.43 | 4.37 | 4.81 | |||||
| 12:39 | Trim Patrick St | 1 | 31.4 | 27 | 69,330 | 0 | 4.09 | 1.2 | 15.78 | 124.72 | 17.04 | 2.86 | 8.68 | 9.54 | |||||
| 12:38 | Trim Patrick St | 1 | 31.5 | 27 | 69,341 | 0 | 1.95 | 1.18 | 14.72 | 111.63 | 17 | 2.86 | 8.67 | 9.54 | |||||
| 12:37 | Trim Patrick St | 1 | 31.5 | 27 | 69,326 | 0 | 0 | 1.21 | 13.29 | 83.17 | 15.97 | 2 | 8.7 | 9.57 | |||||
| 12:36 | Trim Patrick St | 1 | 31.6 | 27 | 69,334 | 0 | 1.38 | 1.12 | 16.99 | 120.85 | 16.66 | 2.86 | 8.7 | 9.57 | |||||
| 12:35 | Trim Patrick St | 1 | 31.6 | 27 | 69,314 | 0 | 5.6 | 1.12 | 13.49 | 134.17 | 17.71 | 2 | 7.88 | 8.67 | |||||
| 12:34 | Trim Patrick St | 1 | 31.6 | 27 | 69,318 | 0 | 2.94 | 1.15 | 13.8 | 120.72 | 17.97 | 2 | 7.88 | 8.66 | |||||
| 12:33 | Trim Patrick St | 1 | 31.7 | 26 | 69,320 | 0 | 0 | 1.16 | 14.91 | 134.68 | 17.21 | 2 | 7.93 | 8.72 | |||||